Regional Weather Roundup
Issued by NWS Upton, NY

Current Version | Previous Version | Graphics & Text | Print | Product List | Glossary Off
Versions: 1 2 3 4 5 6 7 8 9 10 11 12 13 14 15 16 17 18 19 20 21 22 23 24 25 26 27 28 29 30 31 32 33 34 35 36 37 38 39 40 41 42 43 44 45 46 47 48 49 50

000
ASUS41 KOKX 301104
RWROKX

REGIONAL WEATHER ROUNDUP
NATIONAL WEATHER SERVICE NEW YORK NY
700 AM EDT SUN AUG 30 2015

NOTE: "FAIR" INDICATES FEW OR NO CLOUDS BELOW 12,000 FEET WITH NO
SIGNIFICANT WEATHER AND/OR OBSTRUCTIONS TO VISIBILITY.

NYZ071-072-176-178-NJZ106-104-301200-
NEW YORK CITY METRO AREA


CITY           SKY/WX    TMP DP  RH WIND       PRES   REMARKS
CENTRAL PARK   CLEAR     72  61  68 VRB5      30.13R
LAGUARDIA APRT PTCLDY    73  62  68 SW5       30.09R
KENNEDY INTL   PTCLDY    71  64  78 SW7       30.11R
NEWARK/LIBERTY PTCLDY    68  62  81 SW6       30.10R
BRNX BOT. GARD   N/A     72  61  68 SW3       30.12R
TETERBORO      CLEAR     68  60  75 CALM      30.09R
$$

NYZ177-179-078>081-301200-
LONG ISLAND NEW YORK

CITY           SKY/WX    TMP DP  RH WIND       PRES   REMARKS
FARMINGDALE    CLEAR     70  64  81 SW5       30.11R
ISLIP          PTCLDY    69  64  84 SW5       30.09R
SHIRLEY        CLEAR     70  64  81 SW5       30.11R
WESTHAMPTON    CLEAR     67  63  87 CALM      30.12R
MONTAUK POINT    N/A     72  68  87 SW6       30.11R
$$

NYZ052-065-067-301200-
HUDSON VALLEY

CITY           SKY/WX    TMP DP  RH WIND       PRES   REMARKS
WHITE PLAINS   CLEAR     65  62  90 W3        30.10R
NEWBURGH       CLEAR     63  63 100 CALM      30.12R
MONTGOMERY     PTCLDY    61  60  97 CALM      30.10R FOG
POUGHKEEPSIE   CLEAR     62  59  90 CALM      30.09R
ALBANY         MOCLDY    62  58  86 CALM      30.09R
$$

NJZ001-105-106-008-010-013-015-019>022-104-301200-
NEW JERSEY

CITY           SKY/WX    TMP DP  RH WIND       PRES   REMARKS
NEWARK/LIBERTY PTCLDY    68  62  81 SW6       30.10R
TETERBORO      CLEAR     68  60  75 CALM      30.09R
CALDWELL       CLEAR     63  59  87 NW3       30.11R
MORRISTOWN     CLEAR     55  52  88 CALM      30.10S FOG
SOMERVILLE     CLEAR     59  57  93 CALM      30.09R FOG
SUSSEX         FOG       57  57 100 CALM      30.11S VSB 1/2
ANDOVER          N/A     59  59 100 CALM      30.12R
TRENTON        CLEAR     67  62  84 CALM      30.11R
MILLVILLE      CLEAR     62  60  93 CALM      30.13R
ATLANTIC CITY  CLEAR     67  63  87 SW3       30.12R
WRIGHTSTOWN    CLEAR     63  62  99 S2        30.09R
TOMS RIVER     MOCLDY    63  61  94 SW3       30.12R
BELMAR         PTCLDY    66  57  72 W5        30.12R
$$

PAZ047>061-062-071-301200-
EASTERN PENNSYLVANIA

CITY           SKY/WX    TMP DP  RH WIND       PRES   REMARKS
PHILADELPHIA   PTCLDY    70  63  78 S7        30.11S
ALLENTOWN      CLEAR     62  59  90 CALM      30.11R
SCRANTON       CLOUDY    64  59  83 E3        30.11R
$$

CTZ002-004>006-009-010-012-RIZ004-006-007-MAZ004-011-015-301200-
SOUTHERN NEW ENGLAND
 IN CT

CITY           SKY/WX    TMP DP  RH WIND       PRES   REMARKS
BRADLEY INTL   PTCLDY    61  58  90 NE3       30.08R
HARTFORD       CLEAR     65  64  97 CALM      30.09R
DANBURY        CLEAR     62  57  83 CALM      30.12R
WTRBRY/OXFORD  NOT AVBL
BRIDGEPORT     CLEAR     70  63  78 W5        30.09R
MERIDEN        CLEAR     61  58  90 CALM      30.10R
NEW HAVEN      CLEAR     70  63  78 CALM      30.10R
CHESTER        NOT AVBL
GROTON         CLEAR     71  67  87 W5        30.09R
WILLIMANTIC    CLOUDY    60  57  89 CALM      30.10R

 IN RI

CITY           SKY/WX    TMP DP  RH WIND       PRES   REMARKS
PROVIDENCE     PTCLDY    67  64  90 SW5       30.09R
BLOCK ISLAND   CLEAR     72  68  88 SW10      30.10R
WESTERLY       PTCLDY    70  67  90 CALM      30.10R

 IN MA

CITY           SKY/WX    TMP DP  RH WIND       PRES   REMARKS
BOSTON         PTCLDY    69  63  81 SW12      30.07R
WORCESTER      PTCLDY    63  60  90 W9        30.10R
WESTFIELD      FAIR      59  57  93 CALM      30.09R FOG
PROVINCETOWN   CLEAR     68  61  77 SW7       30.08R
NANTUCKET      PTCLDY    69  66  90 SW5       30.10R
$$

ANZ330-335-338-340-345-350-353-355-301200-
COASTAL MARINE OBSERVATIONS


STATION/POSITION TIME  SKY/WX   TEMP    WIND        PRES    VSBY  WAVE
                                AIR SEA DIR/SP/G                  HT/PER
                 (UTC)          (F)     (DEG/KT/KT) (MB)    (MI)  (FT/S)
NY HARB ENTRANCE 0950            73 75  250/ 10/ 14 1018.8          3/11
4S FIRE IS       NOT AVBL
20S FIRE ISLAND  0950            74 74  260/ 12/ 14 1018.9          4/11
GREAT SOUTH BAY  1030            74 77  250/ 14/ 16   N/A
23SW MTP         1050            73 72  260/ 12/ 16 1018.8          3/11
HUDSON CANYON    NOT AVBL
KINGS POINT      NOT AVBL
EXECUTION ROCKS  1000            74     230/  8/ 10   N/A
CENTRAL LI SOUND NOT AVBL
EASTERN LI SOUND 1000            72 71  250/ 10/ 14   N/A
ROBBINS REEF     NOT AVBL
$$


>>>>>>>>>>>>>>>>>>>>>>>>>>>> KEY <<<<<<<<<<<<<<<<<<<<<<<<<<<
>                                                          <
>     SKY/WX - SKY CONDITION/PRESENT WEATHER               <
>     TMP    - TEMPERATURE IN FAHRENHEIT                   <
>     DP     - DEWPOINT IN FAHRENHEIT                      <
>     RH     - RELATIVE HUMIDITY IN PERCENT                <
>     WIND   - DIRECTION AND SPEED IN MPH                  <
>     PRES   - MEAN SEA LEVEL PRESSURE IN INCHES OF HG     <
>     WCI    - WIND CHILL INDEX                            <
>     VSB    - VISIBILITY IN MILES                         <
>     HX     - HEAT INDEX                                  <
>     TC     - TEMPERATURE IN CELSIUS                      <
>     VRB    - VARIABLE WIND DIRECTION                     <
>                                                          <
>>>>>>>>>>>>>>>>>>>>>>>>>>>> KEY <<<<<<<<<<<<<<<<<<<<<<<<<<<





USA.gov is the U.S. government's official web portal to all federal, state and local government web resources and services.